RH
48 51 53 53 52 49 55 79 100 100 102 103 96 98 103 101 99 105 89 58 52 53 63 69 56 49 47 42 37 38 38 39 38 37 36 36 39 33 29 34 40 47 47 51 63 77 85 83 75 64 50 49 57 61 78 83 57 48 54 51 45 37 29 25 23 22 22 21 21 20 20 20 19 19 18 18 17 17 17 18 20 24 27 30 34 39 44 50 56 62 66 64 62 64 63 60 55
46 48 49 47 47 47 46 61 88 100 100 102 101 101 102 101 101 103 91 71 57 45 59 78 68 62 60 52 48 44 39 40 41 41 41 44 45 38 38 44 53 61 59 63 79 90 86 71 59 52 48 52 56 62 80 77 52 44 45 48 46 36 28 25 23 22 22 21 21 21 21 21 20 20 19 19 19 18 18 19 22 26 29 33 37 41 45 51 61 67 68 66 63 67 69 66 62
49 48 48 47 45 45 43 49 73 98 101 100 102 101 102 102 100 101 96 82 63 40 47 75 79 79 82 77 67 52 43 46 50 51 49 49 45 41 46 54 65 73 73 83 92 83 63 51 48 49 50 51 53 60 68 64 50 45 47 51 44 32 28 25 23 22 22 22 22 22 22 22 22 21 21 20 20 20 19 20 24 28 32 35 38 42 45 50 63 71 70 67 64 68 75 75 72
55 51 48 47 44 44 45 44 58 89 102 100 102 100 101 104 100 101 101 92 80 56 50 82 102 100 98 98 88 62 54 66 71 68 59 54 54 57 64 71 80 85 89 91 78 56 45 47 49 51 54 52 53 53 54 56 53 52 55 51 39 31 27 25 23 22 22 22 22 23 23 23 23 22 22 21 21 21 20 22 25 30 34 38 40 42 45 49 61 70 69 67 63 67 78 84 83
56 50 45 45 43 41 45 47 47 73 102 103 102 103 100 102 102 101 102 99 98 88 77 85 94 102 104 102 96 75 73 90 96 92 83 80 85 88 91 94 95 91 84 71 53 44 47 50 50 53 55 51 48 47 49 57 57 56 55 46 36 29 25 23 22 22 22 22 23 23 25 25 24 23 22 22 22 22 22 24 27 32 36 39 40 42 45 48 59 67 66 66 63 64 74 85 90
55 46 44 44 45 44 44 48 41 53 92 107 102 106 104 100 102 101 101 102 102 102 97 84 67 74 94 102 101 93 95 101 101 100 99 99 101 102 101 98 90 79 65 51 44 46 50 49 48 48 47 44 44 47 49 55 57 52 48 42 35 26 23 22 21 21 22 23 24 24 26 25 24 23 23 23 23 23 24 25 29 33 37 39 41 43 45 48 56 62 63 62 62 62 67 79 91
58 46 44 43 45 49 45 45 41 38 65 99 104 102 105 102 101 99 98 102 104 103 99 97 83 70 84 104 105 100 100 103 103 103 102 101 103 102 95 84 73 63 53 45 44 48 49 46 44 41 41 39 42 48 44 47 52 50 47 42 34 26 22 20 20 21 23 25 24 25 25 25 24 23 23 23 23 24 25 27 30 34 37 40 41 43 45 48 53 57 59 60 61 62 64 73 88
64 54 47 43 44 49 47 44 43 37 41 73 101 102 101 102 102 96 92 95 98 98 89 90 96 91 97 108 105 103 104 104 106 106 103 103 100 89 76 66 59 53 47 44 46 49 46 42 40 39 39 36 39 44 44 47 49 47 44 39 33 25 20 19 20 21 24 25 24 25 24 24 23 22 23 23 23 24 27 29 32 35 39 41 43 43 45 47 50 53 57 59 60 60 61 71 84
69 62 55 47 44 47 49 45 41 40 35 44 77 101 102 100 101 99 97 91 80 78 77 76 83 93 106 104 96 98 102 105 108 106 100 94 81 66 60 56 52 48 45 44 46 46 41 40 42 40 36 34 38 46 55 57 49 42 36 34 31 23 20 19 20 22 24 24 24 24 23 23 22 22 22 22 23 25 28 31 34 37 40 43 44 44 44 46 48 50 54 56 57 59 64 74 86
74 68 63 56 50 48 47 46 40 38 38 35 46 76 98 103 101 99 102 95 73 59 60 62 71 93 105 92 84 91 100 105 101 90 79 70 62 57 54 50 47 45 43 43 44 42 39 43 43 36 34 36 37 47 65 62 44 36 34 32 27 21 19 18 21 22 23 23 23 22 21 21 20 20 20 21 23 25 29 32 35 37 40 43 44 45 45 46 47 48 52 55 57 62 71 81 89
78 75 69 63 58 53 48 46 44 40 39 38 35 46 70 93 102 100 101 94 72 54 48 48 65 92 93 81 86 94 94 85 73 67 64 61 58 56 50 46 43 41 42 42 42 39 37 39 36 31 34 36 33 45 63 55 37 34 36 32 24 20 19 19 21 21 22 22 21 20 19 19 19 18 19 20 22 25 28 31 35 36 38 42 45 47 48 49 49 49 50 54 60 66 74 81 85
79 80 75 67 63 59 54 49 46 44 41 41 39 37 43 62 85 96 102 96 75 54 48 51 66 79 71 69 77 74 68 59 57 61 63 63 61 56 49 43 40 39 39 39 39 36 34 32 30 32 33 37 44 55 59 45 32 32 35 31 23 19 18 19 20 20 21 20 19 19 17 17 17 17 18 19 21 24 26 30 33 35 39 43 46 48 50 51 51 50 50 54 61 67 71 74 76
82 82 78 69 66 63 59 56 50 47 45 43 42 42 40 40 52 70 85 90 80 59 49 52 56 58 55 55 55 51 53 58 64 64 61 62 60 54 46 40 39 38 36 36 35 33 32 30 32 32 33 52 62 61 57 42 30 31 34 28 20 18 18 19 20 20 20 19 18 17 16 16 16 16 17 18 20 23 26 29 32 35 39 42 45 47 49 51 52 52 51 53 57 62 65 67 69
83 81 76 69 68 66 62 59 54 50 47 46 45 46 46 44 41 45 54 63 67 59 53 54 48 47 49 50 51 53 58 64 70 68 63 58 50 43 38 37 38 36 35 33 32 31 30 31 35 32 39 59 57 51 51 38 31 35 31 21 18 18 19 20 20 20 19 18 17 16 16 15 15 15 16 18 20 23 26 28 30 32 36 40 44 45 49 51 51 52 52 55 57 59 60 62 63
80 77 71 68 69 68 65 60 55 53 49 47 48 48 48 51 49 45 44 47 53 55 55 56 51 51 54 56 58 61 65 67 68 68 63 52 42 37 35 37 37 34 33 31 31 30 30 35 38 37 47 53 43 44 45 36 39 38 24 18 19 19 19 20 19 18 18 17 16 15 15 14 15 15 16 18 20 22 22 25 26 27 33 39 43 45 49 54 54 54 57 59 60 62 62 61 60
78 75 65 63 68 70 70 66 58 54 54 52 51 52 53 54 53 51 50 50 52 54 52 53 55 56 58 61 63 68 71 67 62 59 53 44 38 35 37 37 34 32 30 30 30 28 30 34 34 36 43 43 40 48 46 42 47 35 22 20 18 19 20 19 18 17 16 16 16 15 15 15 15 14 15 17 19 19 19 21 22 25 33 38 42 44 48 57 60 58 61 64 69 72 69 65 63
75 70 61 59 65 72 77 77 69 62 59 58 56 58 60 59 57 55 53 53 55 53 50 51 55 59 65 66 68 70 67 60 55 49 42 38 36 36 36 33 31 32 30 28 27 27 28 29 28 29 36 39 43 59 58 51 50 32 21 22 19 20 18 18 18 15 23 33 34 24 17 17 16 15 15 16 17 17 17 21 24 25 34 42 42 42 49 61 67 65 67 74 76 69 60 58 59
69 66 62 60 66 76 84 86 81 77 72 68 67 68 68 65 62 60 57 57 58 53 52 56 59 65 72 68 69 70 63 54 47 41 36 33 35 35 34 33 32 31 29 26 25 27 29 29 29 31 42 44 45 72 80 59 49 34 23 23 19 18 18 18 16 22 52 73 67 43 25 23 21 16 14 16 16 16 21 31 37 33 39 49 44 44 58 71 73 71 73 76 70 58 57 59 57
67 65 61 61 70 80 88 88 85 85 84 82 81 79 78 73 69 66 63 63 62 58 58 63 67 71 74 72 72 70 61 50 40 35 34 33 35 36 36 35 34 33 29 26 26 28 30 34 46 59 67 62 60 85 97 73 52 37 26 22 19 18 18 16 18 46 86 94 78 55 37 34 29 19 15 18 21 26 37 49 51 43 50 55 47 55 72 78 75 72 76 72 65 63 65 59 49
66 62 58 66 76 80 85 86 87 87 87 88 88 85 84 80 76 72 70 71 69 69 68 72 75 77 81 78 71 64 55 45 37 34 35 37 37 38 40 39 40 35 28 29 30 34 46 61 79 91 93 90 88 95 101 86 65 48 30 21 19 17 18 15 29 71 97 87 72 57 45 45 39 25 22 34 45 55 63 69 65 58 64 58 53 72 81 78 75 74 72 64 63 66 57 43 35
67 61 61 73 77 76 80 82 85 87 87 88 87 85 84 83 80 73 75 78 76 77 78 80 81 81 85 77 65 55 43 35 32 36 40 43 44 44 45 45 40 26 33 59 65 70 82 93 98 97 100 102 96 96 101 94 87 73 39 21 20 16 16 15 42 89 98 84 73 61 53 51 45 39 49 69 82 88 90 91 86 81 81 63 54 77 85 79 76 70 63 62 68 63 45 35 33
66 66 69 73 72 74 78 78 79 82 85 86 84 80 77 78 80 74 76 78 78 81 81 80 76 78 81 73 61 46 43 54 50 46 45 43 43 41 41 47 51 45 65 97 98 98 99 98 102 99 104 102 86 90 101 98 100 89 41 19 21 15 18 31 68 102 104 93 75 61 56 49 53 68 86 97 99 99 99 100 100 98 97 75 55 70 84 79 72 63 60 70 71 54 41 38 35
57 64 70 71 71 77 80 80 79 79 79 81 81 78 73 72 74 75 78 77 76 80 80 79 74 76 79 70 57 37 48 78 79 74 74 68 55 43 34 36 66 89 95 102 101 101 98 95 102 101 104 103 91 93 101 100 101 94 53 23 19 15 30 64 96 107 107 103 87 72 56 53 76 95 102 101 98 99 99 100 98 99 105 89 62 60 73 72 65 59 61 70 63 48 44 41 36
45 52 60 66 70 76 80 81 82 81 78 77 76 74 73 69 71 76 76 73 74 74 73 76 74 73 74 65 51 34 37 60 81 96 98 95 87 77 58 32 62 105 101 100 103 99 99 97 98 99 101 101 101 100 101 100 99 101 77 39 18 15 40 84 105 103 107 104 100 91 65 69 96 102 101 97 92 95 99 96 87 91 102 97 76 65 69 69 66 62 65 68 58 50 46 41 38
32 39 46 53 60 68 76 79 81 81 78 77 74 71 69 64 69 75 70 68 71 69 65 68 68 64 63 56 46 37 32 39 74 103 95 91 97 97 94 67 71 102 102 101 101 94 97 95 94 99 100 99 101 101 101 102 101 103 93 64 34 17 32 73 93 93 100 101 102 99 82 89 102 101 102 93 85 90 95 85 71 75 87 93 89 81 77 78 78 72 73 75 62 53 48 44 42
24 28 33 38 45 53 62 69 73 75 76 74 72 70 67 63 68 71 65 65 65 63 63 63 63 60 57 52 42 37 36 35 58 92 96 95 98 93 99 96 91 101 102 100 99 99 100 96 96 99 99 100 99 98 97 101 103 101 100 91 66 35 20 42 70 75 88 100 101 101 95 92 93 98 100 87 76 83 91 79 64 64 70 81 87 89 89 94 97 82 75 76 62 54 52 49 44
21 22 25 28 32 37 43 52 57 61 67 67 66 66 64 63 68 67 63 66 65 62 64 60 59 57 54 52 45 37 37 36 41 70 95 103 102 92 94 101 99 102 104 101 100 102 102 100 101 99 98 101 99 97 98 100 101 99 103 102 94 66 24 21 43 54 79 100 100 103 100 92 91 91 92 82 64 68 81 73 63 60 63 77 87 96 100 103 103 77 60 63 54 50 55 55 46
20 20 21 22 24 28 31 36 41 45 51 55 58 59 59 60 62 61 61 70 73 69 66 60 57 57 56 53 47 40 34 35 36 48 77 100 105 97 97 101 99 101 104 102 102 101 101 102 102 100 101 101 100 100 102 102 99 100 100 94 104 89 35 15 26 43 82 102 97 103 102 101 101 89 81 71 53 57 67 64 63 60 61 72 81 94 101 105 101 68 45 47 47 52 61 59 44
21 20 20 20 20 22 24 26 29 33 36 39 44 46 50 53 54 55 62 72 76 72 69 66 63 59 58 55 49 44 35 33 35 37 54 80 98 102 100 100 99 100 102 100 101 101 99 101 100 100 102 101 99 100 102 101 98 102 92 68 79 85 43 17 27 58 94 101 97 102 100 102 105 92 76 59 45 50 61 62 62 56 54 57 61 74 86 93 84 55 37 39 48 62 66 57 41
23 21 20 20 19 20 21 21 22 24 27 28 31 33 37 41 44 48 54 62 65 65 66 67 67 61 57 54 47 43 35 33 36 37 45 57 74 93 101 101 99 99 102 101 99 100 100 101 100 99 101 101 101 101 99 99 99 102 95 65 51 53 35 21 45 85 102 99 100 99 97 103 104 95 77 57 45 52 66 71 65 56 50 48 51 59 64 65 56 40 34 43 61 69 60 48 39
22 22 21 20 19 20 21 19 18 19 21 22 23 25 27 29 32 35 39 45 50 52 55 57 59 57 52 49 45 39 34 40 43 36 40 47 52 68 85 97 102 99 101 104 101 99 100 100 100 100 101 101 100 100 97 98 99 100 104 89 59 45 42 47 72 100 102 99 104 100 100 101 95 91 79 61 54 65 79 79 73 63 52 47 49 51 49 47 43 41 48 60 71 63 49 43 41
20 20 21 21 21 22 23 20 18 18 19 19 21 23 23 23 23 25 27 30 34 37 39 41 43 44 42 40 39 37 33 39 43 33 32 40 44 51 58 69 89 101 100 103 104 100 99 100 100 100 101 101 100 99 97 96 98 101 100 88 68 59 68 84 96 100 99 102 103 96 95 91 83 83 78 66 65 78 87 81 73 65 55 51 49 47 47 46 47 56 68 73 68 55 47 47 45
19 18 19 20 21 22 23 22 20 20 20 20 22 24 24 22 20 20 21 22 23 25 26 28 29 30 31 30 29 31 31 30 31 28 26 30 35 41 40 39 59 88 97 97 102 102 99 99 100 99 100 101 101 101 98 93 97 103 93 73 65 68 78 99 108 102 98 102 101 93 88 88 86 85 81 75 74 81 84 78 72 67 61 58 61 62 54 51 62 74 78 73 64 56 52 52 50
19 18 18 18 19 21 22 22 21 21 22 22 24 26 25 23 20 19 19 19 19 19 20 20 21 21 21 22 22 22 23 23 23 23 22 22 24 28 29 28 34 59 78 79 87 101 101 99 101 99 99 101 100 103 99 94 99 104 91 67 63 77 87 98 107 105 100 98 99 96 90 87 85 84 82 79 79 81 78 75 75 74 72 73 75 64 50 59 80 87 83 77 69 63 59 57 53
20 19 18 18 19 20 21 20 21 21 21 22 23 25 25 24 22 20 19 19 18 18 18 17 17 18 17 16 17 16 16 17 17 17 17 17 18 19 21 24 24 34 50 53 63 92 104 100 101 100 99 100 99 101 100 98 100 101 95 79 73 92 102 103 106 105 103 99 91 83 77 74 69 69 72 72 80 87 83 75 75 82 83 74 65 56 62 86 99 94 88 84 77 70 64 60 54
21 21 20 20 20 21 21 20 20 21 21 21 22 22 22 22 22 22 21 20 20 18 17 17 16 15 15 15 14 14 14 14 14 14 14 14 14 16 16 18 21 24 32 34 43 76 101 102 101 102 101 100 99 100 100 101 101 98 100 93 85 94 103 106 108 103 102 102 91 73 62 59 53 55 61 61 72 92 97 85 76 83 79 67 69 79 94 107 103 94 90 88 83 76 69 63 57
23 23 21 21 22 23 23 22 21 20 20 21 21 20 20 21 20 20 20 20 19 19 17 16 17 16 15 15 14 14 14 13 13 13 13 13 12 13 14 15 17 20 23 27 35 57 87 102 102 101 102 100 99 100 99 100 101 99 102 97 86 90 99 104 106 104 102 99 91 74 61 57 50 51 55 57 72 93 100 91 80 76 69 74 93 97 97 102 98 94 94 93 89 81 73 66 59
25 23 22 23 23 25 25 25 24 21 20 20 20 20 19 19 19 18 18 18 17 18 17 17 17 17 16 15 16 15 15 14 14 13 13 13 12 12 13 13 14 17 18 24 33 41 66 97 104 101 102 101 99 99 99 99 100 100 103 99 92 94 99 102 105 107 105 100 91 75 64 62 57 56 57 61 79 89 86 82 76 70 67 73 79 75 82 94 95 96 97 95 93 86 75 67 61
24 23 23 23 23 26 26 26 27 22 20 20 19 18 18 17 17 17 16 16 16 16 16 16 17 17 17 17 17 17 16 16 14 14 13 12 13 12 12 13 12 15 15 19 29 33 49 85 103 101 101 101 100 99 99 99 101 101 101 101 99 98 99 102 107 109 106 103 98 86 74 68 64 66 67 64 68 74 80 86 82 74 66 63 67 73 85 96 98 100 99 97 96 88 77 68 63
23 23 23 23 24 25 26 28 30 26 23 22 20 18 17 16 15 15 16 15 14 15 16 16 16 16 17 16 16 17 17 17 17 15 14 13 13 14 13 14 11 13 14 15 23 27 37 72 97 100 100 100 100 100 100 100 101 100 99 100 99 97 99 101 103 107 106 103 102 98 85 74 72 76 81 77 67 63 69 85 96 89 70 68 83 89 90 100 106 103 101 102 99 90 81 71 65
24 24 24 26 27 28 29 34 37 33 26 24 21 17 16 15 15 15 15 16 15 16 16 16 17 16 16 17 15 16 16 18 18 15 15 15 15 20 24 22 16 13 14 13 19 21 28 57 85 96 101 100 100 100 100 101 101 99 98 100 99 95 97 101 100 102 104 102 102 103 96 87 86 86 88 91 91 84 69 66 82 91 86 89 96 90 88 100 107 103 103 104 99 92 83 72 67
26 25 26 29 31 32 34 38 43 36 26 23 20 16 17 15 18 19 16 17 16 17 18 16 17 17 16 17 15 15 16 17 19 18 18 16 16 26 33 34 26 16 14 13 16 18 24 45 69 88 101 101 101 102 99 100 101 100 99 100 99 98 97 100 103 103 102 102 101 102 103 98 94 93 93 95 100 102 88 68 64 72 86 96 95 92 95 102 105 102 102 101 97 90 80 71 67
27 27 31 34 34 35 38 39 42 37 27 24 21 19 18 15 23 32 37 41 27 14 18 19 18 17 17 17 15 15 16 16 21 20 18 19 24 33 41 50 45 27 16 13 14 17 23 43 64 80 95 100 102 102 98 99 103 101 100 100 100 100 99 99 102 104 100 101 102 102 105 102 93 91 97 100 100 102 99 92 86 83 91 97 98 100 103 104 103 100 100 100 94 84 75 69 65
28 31 35 38 39 41 42 41 41 38 31 26 23 21 16 16 22 27 48 78 67 31 17 18 19 17 15 16 15 16 16 16 20 19 23 35 44 52 59 67 61 38 20 16 16 16 19 39 61 70 83 97 102 101 97 98 103 102 100 100 100 97 97 97 100 103 100 99 101 99 99 97 90 87 91 95 97 100 100 100 101 99 99 100 100 102 103 103 102 101 99 94 86 79 73 69 70
34 35 37 40 45 47 47 45 42 39 32 25 23 21 17 17 16 17 50 96 94 51 24 20 20 16 15 17 16 16 16 17 20 20 33 53 60 67 76 78 72 56 41 33 25 19 19 30 47 57 72 94 104 101 100 100 101 102 101 101 100 97 97 98 99 103 102 96 93 92 93 94 94 94 91 88 89 93 97 99 100 101 102 101 100 101 102 102 101 99 94 87 82 77 75 76 80
42 38 40 46 50 53 52 48 44 37 28 22 22 22 19 19 16 20 58 103 101 59 29 23 21 16 15 17 17 17 17 18 22 23 38 66 78 83 90 89 90 85 72 60 44 32 25 25 40 59 69 91 109 103 99 102 100 98 100 101 99 99 100 98 96 100 102 97 93 94 96 96 98 97 93 91 91 93 97 100 101 100 101 100 100 101 101 99 95 92 89 86 85 83 84 87 87
53 40 40 47 52 57 56 51 44 34 25 22 24 24 22 21 19 18 41 86 103 69 33 24 24 19 16 17 18 20 21 20 23 22 37 79 99 97 100 99 99 100 89 81 73 60 45 30 40 60 65 81 103 102 100 103 100 97 98 100 101 102 102 99 97 98 99 100 100 100 100 100 100 98 94 92 92 94 97 100 100 100 100 100 101 100 96 93 91 91 93 93 94 95 94 93 93
64 44 36 40 46 53 53 48 40 30 25 24 24 26 24 19 21 24 26 45 62 50 30 26 25 19 16 17 18 22 23 22 25 23 34 81 107 98 100 103 99 100 95 91 90 86 77 59 46 45 47 65 87 95 100 103 100 100 99 99 102 104 102 101 101 100 99 100 101 103 105 105 104 101 98 97 96 98 99 100 100 100 101 100 100 98 95 94 96 99 100 101 103 102 98 96 96
69 51 39 35 37 42 44 43 36 29 28 27 24 25 26 21 20 26 26 24 28 30 31 31 28 23 20 19 19 21 23 23 27 24 28 71 104 102 101 104 101 98 93 93 94 92 94 90 76 55 40 50 71 84 94 97 97 100 101 101 102 102 101 101 102 101 101 101 100 102 104 104 104 102 99 99 100 101 100 100 100 100 101 100 99 99 99 100 103 104 103 102 103 101 99 98 95
68 57 46 38 34 34 36 37 33 30 30 29 27 26 24 23 23 24 24 24 30 35 35 30 28 26 23 22 22 21 23 24 28 27 25 44 76 99 107 104 102 101 94 93 94 93 96 97 96 85 63 54 59 65 71 77 82 90 98 103 103 101 101 101 101 100 100 101 99 100 101 101 103 103 100 100 99 100 100 100 101 101 101 100 100 100 101 102 104 102 99 99 100 100 100 97 87
87 78 61 46 39 36 37 38 35 34 36 34 30 27 23 23 26 27 25 24 31 38 37 32 25 23 24 25 25 22 21 25 28 29 28 28 46 85 110 103 97 101 101 98 96 96 99 98 98 98 90 79 68 59 54 53 60 75 92 103 103 101 101 99 99 100 100 100 100 100 100 101 102 103 102 101 100 100 100 100 100 100 100 99 99 99 99 101 100 97 96 99 101 101 95 82 64
106 99 78 55 43 40 40 43 41 42 46 41 31 27 25 26 29 29 25 23 29 36 38 36 28 24 25 25 26 23 20 24 29 29 30 31 38 64 94 103 100 99 100 101 102 102 102 101 99 98 98 98 91 79 66 54 51 59 78 98 104 101 100 100 100 100 99 100 100 100 101 101 100 101 101 100 100 101 100 99 100 99 98 98 99 100 99 98 96 95 99 103 100 89 72 53 40
107 99 84 65 51 44 42 41 42 46 49 42 33 28 25 27 32 29 24 26 31 35 41 42 36 29 26 24 24 24 20 21 28 31 33 38 40 43 62 90 102 101 100 102 105 107 106 102 101 101 101 101 102 98 91 81 71 65 70 89 102 102 99 100 100 100 101 101 101 101 101 101 100 100 101 100 101 102 100 99 100 100 100 101 101 100 98 97 98 100 99 91 76 57 43 36 35
106 97 90 80 61 48 45 42 40 43 46 42 36 30 27 30 32 28 25 28 33 41 48 51 45 35 28 25 24 24 24 22 26 33 36 38 38 32 46 82 103 102 100 102 103 102 104 105 101 100 102 102 102 101 100 100 97 90 83 87 97 101 101 101 100 101 101 101 101 101 100 101 100 100 101 100 100 101 100 100 101 101 100 100 99 100 101 100 97 88 74 58 44 37 35 37 38
104 100 103 95 69 50 44 41 37 36 39 41 37 30 30 34 32 27 27 31 39 48 52 51 49 40 30 25 25 25 26 23 24 31 35 37 37 34 46 77 102 107 104 105 106 93 87 98 105 101 97 97 99 99 100 101 100 100 98 93 93 95 96 99 100 101 102 101 100 100 100 100 100 100 100 100 101 100 100 99 100 100 100 101 101 99 93 81 67 54 43 37 37 38 40 42 45
101 100 107 100 76 59 51 44 41 38 35 36 34 30 34 40 35 31 31 33 41 51 52 47 45 40 31 26 26 27 28 26 25 29 33 35 39 46 58 71 83 97 102 103 109 95 71 75 97 104 93 84 87 97 103 102 99 98 98 96 94 90 86 86 88 92 96 98 99 100 100 99 99 100 99 100 100 100 101 101 101 101 98 92 82 69 57 46 39 37 37 39 41 43 47 52 56
101 100 103 98 82 68 58 50 46 41 37 36 33 32 40 45 39 37 36 33 41 54 56 48 42 39 34 28 27 28 28 28 29 36 43 46 46 50 63 72 73 85 95 96 106 105 75 58 73 89 84 72 77 96 104 101 99 98 94 94 95 92 87 81 79 81 84 88 92 96 99 100 100 101 101 102 101 100 99 94 87 79 68 56 46 38 36 35 37 39 40 41 43 46 51 55 57
103 102 103 103 94 78 65 56 50 43 38 35 33 37 46 47 44 44 41 36 40 50 57 52 44 39 35 30 31 32 31 29 28 34 47 61 71 68 63 64 66 83 100 100 102 102 79 59 65 77 73 67 78 96 97 94 96 93 92 98 102 99 98 93 84 82 83 81 82 87 91 93 93 92 90 89 84 78 70 61 52 44 38 35 34 35 37 39 40 41 41 43 45 49 51 53 53
Wind_Speed
58 57 56 56 57 59 60 62 60 57 54 54 57 58 56 54 54 58 58 51 48 46 45 46 46 47 47 44 41 41 40 40 41 42 42 42 42 41 41 42 45 45 43 44 45 47 50 54 58 58 55 51 49 48 47 46 45 44 42 42 41 41 41 41 41 40 40 39 38 38 37 36 35 35 33 33 32 31 30 28 26 24 22 20 18 17 17 16 16 16 15 16 16 15 16 16 17
58 57 57 57 57 58 59 62 62 58 52 51 56 60 60 56 53 56 55 51 48 43 45 47 47 47 46 44 43 42 40 39 40 42 42 43 44 44 45 45 46 46 44 44 46 49 53 56 56 54 51 49 48 47 46 46 46 44 43 42 41 41 41 40 40 39 39 38 37 36 36 35 35 34 33 32 31 30 29 28 26 24 22 20 18 17 17 16 16 15 15 16 16 16 16 17 17
58 57 57 58 58 59 58 60 62 60 56 54 56 60 62 61 59 56 52 52 48 41 42 45 46 47 45 45 45 43 40 40 41 42 43 44 45 47 47 46 46 45 43 45 48 51 54 53 51 50 49 48 47 47 46 47 46 43 41 41 41 41 40 40 39 38 37 37 36 35 34 34 34 33 32 31 30 29 28 27 26 24 22 20 18 17 16 16 16 15 15 16 16 16 17 18 18
57 56 57 58 58 58 58 58 61 62 60 60 61 60 62 64 66 61 53 51 47 40 39 43 45 44 42 42 44 43 40 41 43 43 42 43 45 47 48 46 44 43 45 47 50 51 51 49 48 48 48 47 46 46 46 46 43 40 40 40 40 39 38 37 37 37 36 35 35 34 33 33 33 32 31 30 29 28 27 26 25 24 22 20 18 17 17 16 16 16 16 16 17 17 18 19 19
57 56 57 57 58 57 57 57 59 61 62 65 67 65 64 64 67 65 62 59 54 48 42 43 45 43 40 40 43 41 37 39 41 41 40 40 43 46 47 46 45 45 47 48 50 50 49 48 47 47 46 46 46 46 45 43 40 39 39 38 37 36 36 36 36 35 35 34 33 33 32 32 32 31 30 29 28 27 26 25 24 23 22 20 18 17 17 16 16 16 16 17 18 18 18 19 20
57 56 57 57 57 57 56 55 57 61 64 66 69 70 69 68 67 65 66 67 65 59 49 42 40 40 39 40 44 41 39 44 46 46 45 44 47 50 51 49 48 47 47 48 49 49 48 48 48 47 46 45 45 45 43 41 39 38 37 36 35 34 35 35 35 35 34 33 32 32 31 31 31 30 29 29 28 27 26 25 24 22 21 20 18 17 17 16 16 16 17 18 18 19 19 20 21
57 57 56 57 56 55 54 54 55 58 64 67 69 72 73 74 73 69 67 69 71 68 59 47 42 41 41 45 49 47 48 53 54 54 52 52 52 54 54 51 48 46 46 48 49 49 48 48 48 47 46 46 45 44 42 40 39 38 36 35 35 35 35 35 35 34 32 32 31 31 30 30 30 29 28 28 27 26 26 24 23 22 21 19 18 17 17 16 17 17 17 18 19 20 20 21 21
58 57 56 56 56 54 53 53 54 57 62 67 70 73 74 76 77 73 71 73 74 71 64 56 52 51 52 56 57 55 54 55 55 55 54 54 54 53 51 48 45 44 46 48 48 48 48 48 47 47 46 46 45 43 41 39 38 37 36 36 36 36 36 35 35 33 31 31 30 30 29 29 29 28 28 27 26 26 25 24 23 22 21 19 18 17 17 17 16 17 18 18 19 20 21 21 21
58 58 57 57 55 53 52 53 54 56 60 64 69 74 75 76 77 75 74 76 75 69 63 58 57 57 59 61 58 53 51 52 54 53 53 53 52 49 46 44 43 45 47 48 48 48 48 47 45 45 45 45 44 42 40 38 37 37 36 36 36 36 35 35 34 32 31 30 29 29 28 28 28 27 27 26 26 25 25 24 23 22 21 20 19 18 17 17 16 17 17 19 19 20 20 20 21
58 59 58 57 55 52 52 53 54 56 60 62 65 71 75 77 78 76 77 78 72 65 59 56 56 57 58 58 53 49 51 53 54 53 50 49 47 45 44 43 45 47 48 48 48 47 46 44 44 44 44 43 42 40 38 37 36 36 36 36 36 36 35 34 33 32 30 29 28 28 28 27 27 26 26 25 25 25 24 24 23 22 21 20 19 19 18 17 17 17 17 18 19 19 20 20 21
58 58 58 56 54 52 52 53 55 56 58 60 61 66 72 77 78 77 79 79 71 60 52 52 55 58 57 53 50 51 53 53 51 49 46 44 43 44 44 45 47 47 48 48 47 45 44 44 44 44 43 42 41 39 37 36 36 36 36 36 36 35 34 33 32 31 30 28 27 27 27 26 26 25 25 24 24 24 24 23 23 22 21 20 19 19 19 18 18 18 18 18 18 18 19 19 20
59 58 58 56 54 53 53 54 54 56 57 57 59 63 68 73 76 76 79 77 69 57 48 50 55 58 55 51 50 51 51 49 47 45 41 41 42 44 46 47 48 47 47 46 45 44 44 44 44 43 43 41 38 37 36 36 36 36 36 35 34 34 33 31 30 29 28 27 26 26 26 26 25 25 25 24 24 24 23 23 22 21 20 20 19 19 19 19 19 19 19 19 18 18 19 19 20
59 59 59 56 54 54 53 53 53 55 55 56 59 62 65 68 70 73 77 74 67 55 47 51 54 54 52 49 49 48 47 45 43 42 42 42 44 45 46 47 47 46 45 44 43 44 44 44 43 42 41 38 36 35 36 36 35 34 34 34 33 32 31 30 29 28 27 26 26 26 26 25 25 24 24 24 23 23 23 22 21 21 20 20 19 19 19 20 20 20 19 19 19 19 19 20 21
61 61 60 55 54 54 53 52 53 54 55 58 60 62 65 66 66 68 71 69 61 52 48 50 49 49 49 47 47 46 45 42 40 41 42 45 46 46 46 46 45 44 44 43 43 43 43 43 41 40 38 36 35 35 35 34 33 32 32 32 31 30 29 28 27 27 26 26 26 26 26 25 25 24 24 24 23 23 22 22 21 20 20 19 19 19 19 19 19 19 18 18 18 18 19 19 20
63 63 60 55 53 53 52 52 53 54 55 59 61 63 65 65 64 66 66 62 55 48 49 50 45 45 46 45 45 44 42 41 41 42 43 44 45 45 44 44 44 43 43 42 43 43 43 41 39 38 36 35 35 34 32 31 29 29 30 30 29 29 28 27 27 27 26 26 27 27 26 26 25 25 24 24 24 23 22 22 21 21 20 19 19 19 19 18 18 17 16 16 16 17 18 19 20
65 65 60 55 53 52 52 53 54 54 56 60 62 64 65 63 63 63 62 57 49 45 50 49 43 44 44 44 44 42 41 41 43 43 44 44 43 44 43 43 43 42 42 43 43 43 42 40 39 37 36 35 33 31 30 29 27 28 29 29 28 28 27 27 27 27 27 27 27 27 27 26 26 25 24 24 24 23 22 21 21 21 20 19 19 19 18 17 16 15 14 13 14 15 17 18 20
67 65 59 54 52 52 53 55 56 56 59 61 63 65 65 63 61 60 58 53 45 44 49 46 42 42 42 44 43 41 42 42 43 44 44 43 43 43 42 42 42 42 43 43 43 42 41 40 39 37 35 33 32 31 30 28 27 29 30 29 28 27 27 28 28 28 28 28 28 28 27 27 26 25 25 24 24 23 22 21 21 20 20 19 18 18 17 16 14 12 10 10 12 15 18 21 22
67 63 58 54 53 53 55 57 59 60 61 62 65 65 63 62 60 58 56 50 43 44 50 45 41 41 42 43 42 42 43 43 44 44 44 43 42 42 42 42 42 43 43 42 41 40 39 38 37 36 34 32 31 31 29 27 28 29 30 29 28 27 28 29 29 29 29 29 28 28 28 27 26 26 25 24 24 23 22 21 20 20 19 18 17 16 15 13 9 6 7 10 13 17 22 24 25
67 63 59 55 54 56 57 59 61 62 62 64 66 65 63 62 60 57 53 47 42 45 51 47 43 43 43 42 42 42 43 43 43 43 43 43 42 42 42 43 44 44 42 41 40 38 36 36 35 33 33 32 31 30 28 26 27 29 29 29 28 28 29 29 30 30 30 30 28 28 28 27 26 26 25 24 24 22 21 20 20 19 17 16 15 15 12 8 4 5 9 12 17 22 25 25 26
66 64 60 56 57 59 59 60 61 63 64 66 68 66 63 61 59 55 50 45 43 47 52 48 45 45 43 43 43 43 43 43 43 42 42 42 41 41 42 44 44 42 41 41 39 37 35 35 33 32 32 29 28 28 26 25 26 28 29 29 28 28 29 30 30 29 30 29 28 28 28 27 26 25 24 23 22 20 19 19 19 17 15 14 13 13 10 6 5 8 12 15 20 23 24 25 26
66 64 60 59 62 62 62 63 64 65 66 68 69 66 63 60 58 53 47 46 44 49 54 50 47 45 44 45 45 45 44 44 44 42 41 41 41 42 44 45 43 41 39 34 33 34 34 32 27 26 25 20 21 23 22 23 25 27 27 27 28 28 30 30 29 29 30 29 28 28 27 26 25 23 21 20 18 16 16 17 17 15 14 13 13 13 11 9 8 10 14 18 20 22 23 25 27
66 63 61 63 65 64 65 66 65 66 67 69 68 66 63 59 56 51 48 47 45 52 57 53 49 46 46 47 46 44 42 41 40 41 41 42 44 46 46 45 42 38 32 28 30 34 34 29 22 20 16 11 16 20 22 25 26 26 26 27 28 28 30 30 29 29 29 28 27 27 26 25 22 19 17 16 15 14 15 15 15 14 14 14 14 14 13 11 10 13 18 20 20 22 24 26 29
66 62 62 64 66 66 67 68 67 68 69 69 67 65 62 59 55 50 49 48 48 57 60 54 50 48 46 47 47 44 40 37 35 37 39 41 47 50 47 44 42 38 32 33 37 36 35 30 25 23 17 13 16 19 24 29 28 27 29 29 28 28 29 28 28 27 27 27 25 25 24 21 17 16 16 16 16 15 14 14 13 13 14 14 14 15 14 12 11 17 20 20 21 22 24 27 30
67 63 63 65 66 66 68 69 70 70 70 69 67 65 62 59 55 51 51 50 54 62 59 53 52 50 48 48 49 46 43 40 35 33 34 39 47 52 48 42 42 43 38 39 41 37 36 34 30 28 22 19 21 23 27 30 29 29 33 32 29 28 29 28 27 27 27 27 25 24 22 18 16 16 16 18 19 18 16 14 14 13 12 13 15 15 14 12 15 20 20 20 21 24 27 29 32
67 65 66 67 67 67 68 70 70 71 70 70 68 64 62 59 55 55 56 56 61 64 59 54 53 52 52 51 50 49 46 45 42 39 41 44 45 46 44 39 40 44 39 39 38 31 34 35 30 29 26 26 27 26 29 31 32 34 35 33 30 29 29 30 29 29 28 28 26 23 20 18 17 16 17 20 22 21 18 17 17 14 12 12 13 13 12 13 17 21 22 22 24 27 30 32 35
67 68 70 70 69 68 69 70 70 70 70 70 67 64 62 58 56 58 60 60 63 64 60 57 56 54 54 53 52 52 49 47 45 43 45 50 47 41 39 37 39 43 40 39 36 31 36 36 30 29 28 29 28 25 31 34 35 38 37 34 32 30 30 31 31 32 30 28 26 22 19 19 18 17 18 21 24 23 22 20 19 16 13 11 11 11 13 15 19 22 23 24 26 30 33 35 38
69 71 73 72 70 70 70 70 69 68 68 68 66 63 61 59 59 61 60 59 61 62 61 60 58 56 55 54 53 54 52 49 47 46 45 48 49 44 39 37 40 44 44 41 38 38 42 40 37 34 30 29 26 26 31 33 36 39 38 36 34 32 31 31 32 33 31 28 24 21 20 19 20 21 20 22 25 25 25 24 21 19 16 14 14 14 15 17 20 24 25 27 30 32 34 37 40
71 71 72 71 70 71 70 69 68 67 66 66 64 62 62 62 62 61 60 60 61 62 62 60 58 57 55 55 54 55 54 51 48 48 48 47 49 49 43 39 40 44 45 42 40 41 42 42 42 37 32 31 29 31 32 31 34 36 33 34 35 33 32 32 32 31 29 27 25 22 22 23 24 24 23 24 25 25 26 27 24 22 20 19 19 18 18 20 23 27 29 31 33 35 36 38 41
70 69 69 69 69 69 68 68 68 67 66 65 63 62 62 63 62 60 59 61 64 65 63 61 60 58 57 57 56 56 55 52 50 49 52 54 54 52 48 43 42 44 44 42 41 41 42 42 42 40 36 33 32 34 33 29 31 31 29 30 30 31 32 32 30 29 27 27 26 25 26 26 26 26 25 26 27 26 26 27 26 25 24 23 23 23 23 24 25 29 33 33 34 37 38 40 42
68 67 67 67 66 65 66 68 68 67 66 64 63 63 64 64 62 59 59 62 66 65 63 62 61 60 59 58 58 58 57 55 53 53 55 57 59 59 55 49 45 46 45 42 41 41 42 42 42 42 38 32 32 35 34 32 33 32 29 26 26 29 31 31 29 28 27 28 27 25 25 26 27 27 28 28 28 28 27 27 28 27 27 26 25 26 27 27 28 32 35 35 36 40 41 43 43
67 66 64 63 61 60 64 68 67 65 65 64 63 65 67 66 63 60 59 62 65 65 63 62 61 60 59 58 58 58 57 54 53 55 57 58 59 61 61 57 51 49 49 45 42 42 43 43 42 43 41 34 33 35 35 36 38 36 30 26 26 29 30 30 29 29 28 29 29 26 26 28 29 29 29 29 28 28 28 28 29 30 29 27 27 28 29 29 31 34 37 37 39 42 43 43 41
66 64 60 59 57 58 63 66 64 63 63 62 62 64 66 66 64 61 61 63 65 66 63 62 61 60 58 58 57 56 57 56 54 56 59 60 60 59 60 60 57 54 53 49 45 43 43 44 42 42 43 39 37 38 37 39 41 37 31 28 28 29 30 29 30 31 31 31 32 32 32 32 32 31 30 29 28 28 29 29 30 30 29 28 28 28 28 29 33 37 38 39 41 43 42 41 40
64 60 57 57 57 58 62 63 61 61 61 60 60 62 64 64 63 62 62 63 65 65 64 63 62 60 59 57 57 56 57 58 58 59 61 62 61 60 59 60 60 58 57 54 49 45 44 44 43 42 43 43 42 42 41 42 42 38 34 32 29 29 31 31 32 33 34 33 34 36 38 36 34 32 30 28 28 29 30 31 31 30 29 28 27 27 28 32 36 38 39 42 43 43 42 41 40
61 59 57 58 58 59 61 61 60 59 59 58 58 60 61 62 61 60 61 62 63 63 63 63 62 60 59 58 57 57 57 59 60 61 62 63 62 61 60 60 61 60 60 58 53 49 46 45 45 43 44 45 45 46 45 44 41 37 36 35 32 30 31 35 36 36 37 36 35 36 37 37 35 32 30 29 30 31 32 33 32 31 30 28 27 29 32 36 38 40 43 46 45 44 43 42 42
61 60 59 59 58 59 60 60 60 59 59 58 58 59 60 59 58 57 58 59 60 61 62 61 61 60 58 57 56 56 57 59 62 63 63 63 62 61 61 61 61 62 62 61 57 53 49 48 47 46 46 46 46 45 45 45 40 36 36 36 34 33 33 37 40 39 38 38 39 39 39 38 37 35 33 33 33 34 34 35 34 32 31 31 32 34 36 40 42 44 48 49 48 47 46 45 46
65 64 62 60 59 59 59 60 60 60 59 58 58 59 59 57 56 56 57 57 58 58 59 59 58 58 56 55 54 54 56 58 61 62 61 62 62 61 61 61 62 63 64 63 60 56 52 50 50 49 48 47 46 44 43 45 44 40 39 37 36 36 37 39 42 42 40 40 41 42 43 43 42 40 39 38 37 36 36 35 34 34 34 34 34 35 39 43 45 48 51 51 51 50 49 48 49
67 65 63 61 60 60 60 60 61 61 60 59 59 59 57 56 57 57 56 56 56 55 55 55 54 53 52 51 50 51 53 56 57 58 58 60 60 60 60 61 62 64 65 64 62 58 54 53 52 51 50 48 46 44 42 44 45 44 43 41 41 43 43 43 42 41 41 42 42 43 45 45 43 42 42 39 36 36 36 36 36 36 36 35 35 37 42 46 50 53 55 54 53 52 52 52 52
68 66 64 62 61 60 60 60 62 64 62 61 61 59 57 56 57 57 56 55 55 54 52 51 50 50 49 48 48 48 49 51 52 53 54 56 57 58 59 61 63 65 66 65 64 60 55 54 53 52 51 49 48 47 45 44 45 45 44 44 46 47 46 44 41 40 40 41 42 43 45 45 44 43 41 37 35 35 37 38 39 38 38 38 39 42 46 50 54 57 58 57 56 55 55 55 55
69 67 64 63 61 61 61 61 63 65 63 62 62 59 58 57 56 55 55 55 54 52 50 49 49 49 49 48 47 47 47 48 49 49 49 51 53 55 56 59 62 64 66 65 64 62 56 53 53 53 52 50 50 50 48 46 45 45 43 42 43 45 45 42 41 40 40 41 42 42 43 44 43 42 40 38 37 37 38 38 39 40 40 41 43 45 49 53 57 59 60 60 59 58 58 59 59
69 66 64 63 62 62 61 60 63 65 64 63 63 60 58 57 54 53 53 53 52 50 49 49 50 51 51 50 48 47 46 46 46 46 47 48 50 51 53 56 60 62 65 65 64 62 58 54 53 54 52 51 51 51 50 48 46 45 44 42 41 43 44 43 42 41 40 41 42 42 42 42 42 40 39 39 39 39 40 40 41 42 43 44 47 49 53 57 60 62 63 63 63 62 63 63 63
68 66 63 62 62 62 61 61 64 67 66 65 64 60 57 54 52 52 52 52 50 49 48 48 50 52 52 51 49 48 46 45 45 45 45 45 47 49 50 52 56 59 63 65 64 62 59 56 55 55 54 53 53 53 52 50 48 46 45 44 43 44 45 45 44 44 43 42 42 42 42 41 41 40 39 38 39 40 42 43 44 46 48 49 50 53 57 60 63 64 66 66 67 67 67 66 64
67 65 63 63 63 62 63 64 67 69 68 65 63 59 55 52 50 49 49 49 49 48 47 47 50 51 51 51 51 49 47 45 44 45 45 44 45 47 48 49 52 55 60 63 63 62 59 58 57 56 56 55 54 54 54 53 51 49 47 47 46 47 47 47 47 47 46 44 43 44 44 44 43 42 41 40 40 42 44 46 47 50 52 53 54 57 60 62 64 67 68 70 71 71 70 68 66
66 64 64 65 65 64 65 67 68 69 67 64 62 58 54 52 48 44 44 47 49 49 47 47 51 51 50 50 51 50 48 46 44 45 44 43 43 45 46 47 48 50 56 60 61 61 60 58 57 57 58 57 55 56 56 55 53 52 50 48 48 48 48 48 48 49 49 47 46 45 46 47 46 45 44 43 42 43 44 46 47 49 52 54 58 61 62 64 66 69 71 73 73 73 72 70 69
64 64 67 67 67 66 68 69 69 68 67 65 62 57 54 53 50 45 42 44 48 49 47 48 53 53 49 48 49 49 48 46 44 45 44 42 42 43 44 45 44 45 50 55 57 58 59 59 57 57 58 57 56 56 57 56 55 55 54 50 47 47 47 48 48 49 49 49 49 48 48 48 47 46 46 47 47 47 47 48 49 51 53 57 60 62 64 66 69 71 73 74 73 73 72 71 71
63 66 68 68 69 69 70 71 70 69 69 65 60 56 53 51 49 44 40 41 46 47 47 49 54 53 48 46 48 49 48 47 46 45 43 41 40 41 42 43 42 42 45 49 52 54 56 57 57 57 57 56 55 56 56 57 58 58 56 53 49 46 45 46 48 49 49 50 50 50 51 50 50 49 49 50 52 52 52 52 53 54 56 58 61 64 66 69 71 73 74 74 73 73 73 73 73
66 69 69 70 71 71 72 72 72 71 70 63 56 52 50 47 47 43 38 40 46 47 48 50 52 50 46 45 48 50 50 48 47 45 43 41 40 41 42 42 41 41 43 45 47 49 52 54 54 55 55 53 53 56 56 57 59 59 58 56 53 50 47 46 48 49 50 50 51 51 51 51 51 50 50 51 51 52 52 52 53 54 57 61 64 67 69 71 73 74 74 73 74 74 75 76 77
69 71 71 72 72 73 74 73 73 73 66 59 52 49 48 46 45 43 42 47 51 50 48 48 49 47 45 45 48 51 51 49 48 46 44 42 40 41 42 42 42 42 42 43 43 45 47 50 52 54 55 53 54 56 56 57 59 60 59 57 54 53 50 48 48 49 50 50 50 51 52 52 51 51 50 50 49 50 50 51 54 58 62 66 69 71 73 74 74 74 73 74 75 76 77 78 80
72 72 72 74 74 74 74 74 74 69 59 54 51 49 49 47 44 43 45 51 54 51 46 46 49 47 46 47 48 49 51 50 49 47 46 45 42 41 41 41 41 41 41 41 41 42 43 46 49 52 53 53 54 55 56 57 58 59 59 57 54 53 52 50 48 49 49 49 49 50 50 50 50 49 48 49 49 51 53 55 59 64 67 70 72 74 74 74 73 73 74 76 77 78 80 81 82
72 72 72 73 74 74 73 73 70 61 54 54 53 51 49 46 43 44 46 49 51 49 46 46 48 47 48 49 47 48 50 50 50 49 49 48 45 41 40 40 40 40 40 40 41 41 40 41 44 46 48 49 51 53 54 56 57 58 58 58 55 54 53 52 50 48 48 47 47 48 48 48 47 47 48 50 53 56 59 61 64 67 70 72 73 74 74 73 73 75 77 79 80 81 82 83 84
71 70 68 69 70 70 69 68 63 57 55 56 54 52 49 44 42 44 45 48 49 47 45 46 47 47 49 49 48 49 50 50 51 50 50 51 48 44 42 42 41 40 40 41 41 40 40 39 40 41 43 45 46 48 51 53 55 56 57 56 56 54 53 53 51 49 48 47 46 46 47 48 49 50 52 54 57 60 62 65 67 69 71 72 73 73 74 75 77 79 81 82 82 84 85 86 87
69 69 68 68 66 65 64 64 60 57 56 56 55 52 47 43 42 43 46 49 49 46 45 46 47 46 48 49 49 50 50 50 51 52 52 51 50 46 44 43 43 42 42 42 41 41 40 39 39 39 40 41 43 45 46 48 51 53 54 55 55 54 53 53 52 51 50 49 48 48 49 51 53 55 56 58 60 63 65 67 69 70 72 73 74 75 77 79 81 82 83 84 85 86 87 88 89
72 72 71 67 63 62 63 62 60 57 56 56 55 51 46 42 41 43 47 49 47 45 44 46 47 46 47 49 49 50 50 51 52 53 53 53 51 49 47 45 44 44 45 44 43 42 41 40 40 40 39 39 40 42 43 45 47 49 51 52 53 53 52 52 52 51 51 50 50 51 53 54 56 58 60 61 63 65 67 69 70 72 74 76 77 79 80 82 83 84 84 86 87 88 89 89 89
75 75 68 62 62 63 64 63 60 58 57 57 55 50 46 42 41 43 47 46 43 41 42 44 45 46 47 48 49 50 50 52 54 55 55 54 52 51 50 49 47 46 46 46 46 45 43 42 41 40 40 39 39 39 40 41 43 45 47 49 51 51 51 51 51 51 52 52 53 54 55 57 58 60 62 63 65 67 68 70 72 74 76 78 79 80 82 83 84 85 86 88 88 89 88 88 88
77 72 65 64 67 67 64 62 60 58 57 56 54 49 45 43 43 45 46 45 42 40 41 42 44 46 47 48 49 50 51 52 55 56 56 55 53 52 52 52 52 50 48 48 47 47 46 44 42 41 41 41 40 40 40 40 41 43 45 48 49 51 51 51 52 53 54 55 56 57 58 59 60 61 63 64 66 68 70 72 74 76 77 79 80 81 83 84 85 86 87 88 88 87 87 86 86
75 70 67 71 70 65 61 60 58 56 55 55 53 49 45 43 44 44 43 43 41 41 43 43 45 48 48 47 47 49 50 52 54 56 56 55 54 54 54 54 55 53 51 50 49 49 48 46 44 43 43 43 42 42 42 42 42 43 44 46 49 51 52 52 54 55 56 57 58 59 60 61 62 63 64 66 68 69 71 73 75 77 78 79 81 82 83 84 85 86 86 86 85 85 85 86 86
74 71 72 72 68 63 61 59 56 55 54 54 53 49 45 43 42 42 41 41 41 42 43 44 45 47 48 47 46 47 49 52 53 55 55 55 55 54 55 56 56 55 54 52 51 50 49 48 46 45 44 44 44 44 43 43 43 44 45 46 48 50 51 53 54 55 56 57 58 58 59 60 61 63 64 66 68 70 72 74 76 77 79 80 81 82 83 83 83 84 84 84 84 85 86 86 87
72 71 72 70 66 64 62 59 56 54 54 54 52 49 46 44 41 41 42 42 42 42 43 44 45 46 46 46 46 47 48 50 52 53 53 54 55 55 56 57 57 56 55 54 52 50 49 49 48 46 45 45 45 45 45 44 44 43 44 45 47 48 50 51 52 53 54 55 56 58 59 60 62 63 65 67 70 72 73 75 76 77 78 79 80 80 80 81 81 82 83 83 84 85 86 86 87
70 70 70 68 66 64 62 59 56 54 53 52 51 50 48 45 42 43 44 42 41 41 43 44 45 44 45 45 45 46 47 48 49 51 52 54 55 55 56 58 58 57 57 56 54 52 51 50 49 48 47 46 46 46 46 45 45 44 44 45 46 47 48 50 51 53 54 55 57 59 60 62 64 66 67 69 71 73 74 74 75 76 76 77 78 78 79 80 81 82 83 83 84 85 86 87 88
Wind_Direction
235 234 234 234 232 232 231 227 228 233 238 238 236 237 238 240 243 245 250 252 249 252 254 252 253 255 257 261 262 260 260 262 264 268 270 272 280 288 290 290 289 290 295 299 298 298 299 300 301 301 302 302 303 305 307 308 310 313 313 313 313 315 316 316 316 315 315 315 314 314 314 314 315 315 316 317 319 320 320 319 317 315 311 307 300 291 283 277 272 269 269 272 276 273 268 269 272
233 233 233 233 232 231 232 230 227 227 232 236 236 237 237 237 239 241 247 250 248 250 252 251 252 256 259 260 260 259 260 261 263 266 269 272 279 285 287 287 287 288 294 297 296 296 298 298 298 298 299 300 302 305 306 308 310 310 311 312 313 314 315 315 315 315 315 315 314 314 314 314 314 315 316 317 319 320 320 320 318 315 312 307 300 290 282 275 272 269 268 271 276 274 268 267 270
233 232 232 232 232 231 230 231 230 225 226 232 235 237 238 238 238 239 243 247 249 248 250 251 252 256 259 259 260 261 264 266 267 267 270 274 279 282 283 284 285 287 292 293 293 295 296 296 296 296 297 299 301 303 305 307 309 309 311 312 313 314 314 314 314 315 315 315 314 314 314 314 314 315 316 317 318 319 320 320 318 315 311 307 300 290 282 274 270 268 267 270 275 274 268 266 269
233 231 231 232 232 232 230 230 231 228 224 228 233 237 239 240 240 240 240 242 244 241 241 245 246 250 253 256 260 262 265 268 270 271 274 278 279 279 279 281 284 286 289 290 292 294 294 294 295 296 297 298 300 301 304 306 309 310 311 312 313 314 315 315 315 315 315 315 314 314 313 313 314 315 315 316 317 318 319 319 317 314 310 306 299 291 283 274 268 267 266 268 272 273 268 265 267
233 232 231 231 231 231 231 229 230 230 227 228 233 236 238 239 241 242 240 239 239 235 230 234 239 244 248 253 257 260 264 266 270 274 278 279 278 278 278 280 283 286 288 290 292 292 292 293 294 296 298 299 300 302 303 306 309 311 311 312 314 316 316 316 316 316 315 314 313 313 313 313 313 314 314 315 316 317 318 318 316 313 309 305 299 292 284 275 269 267 268 268 270 272 270 266 266
233 233 232 231 231 231 231 230 230 231 229 229 233 237 237 238 239 240 241 241 241 238 231 230 237 243 246 249 253 257 263 265 269 274 279 281 282 283 283 284 286 288 289 290 291 291 291 293 295 296 298 300 301 302 304 306 309 310 312 313 316 317 317 316 316 315 314 313 312 312 312 312 312 312 313 314 315 316 316 316 314 311 308 304 298 292 286 278 272 270 270 270 271 272 272 269 267
233 232 232 233 232 231 231 230 230 231 231 230 233 237 238 240 240 239 239 242 243 241 237 233 235 240 241 244 250 257 265 268 269 273 277 281 284 285 286 287 288 288 288 289 290 290 291 293 295 296 298 300 301 302 304 306 308 310 312 314 316 317 316 316 315 314 313 312 311 311 312 312 311 311 312 313 314 315 315 314 313 310 307 303 298 292 287 282 276 274 273 272 272 272 273 271 270
233 232 231 233 232 231 231 231 231 231 232 231 232 236 239 241 243 242 241 243 244 243 241 238 238 242 245 247 253 260 266 267 269 272 276 279 281 282 284 286 287 287 288 289 289 289 291 294 295 296 298 299 300 302 304 306 308 310 312 314 315 315 315 315 314 312 311 311 311 311 311 310 310 310 311 312 313 313 313 312 311 309 306 303 299 295 290 286 282 278 276 273 272 271 272 273 273
233 232 230 231 232 230 231 231 232 232 234 232 232 235 238 240 243 244 244 244 243 243 243 242 244 246 250 252 256 262 264 266 268 272 275 277 277 278 281 283 285 285 287 288 288 289 292 294 295 297 298 298 299 302 305 307 309 311 312 312 313 314 314 314 313 311 310 311 311 311 309 309 308 309 310 310 311 311 311 310 309 307 305 303 301 298 294 291 287 283 278 275 272 271 271 273 276
232 232 230 229 230 230 230 231 232 233 234 235 233 235 239 241 242 244 245 245 243 241 241 242 246 248 250 252 256 260 262 264 268 271 272 274 275 277 279 281 283 284 286 286 287 290 292 293 295 296 296 297 299 302 305 308 310 311 311 311 312 313 313 312 311 310 310 311 311 309 308 307 306 307 307 308 308 309 309 308 307 306 305 303 301 300 298 295 292 287 283 278 276 274 274 275 278
232 233 231 229 229 229 229 231 233 234 235 236 236 237 239 241 243 244 246 247 246 242 239 241 247 251 250 252 255 258 260 263 266 269 271 273 275 277 279 280 282 283 284 285 287 289 290 292 293 294 294 296 299 302 304 307 309 310 309 310 311 312 312 311 311 310 309 309 309 307 305 304 304 304 304 305 306 307 307 306 306 305 304 302 301 300 299 297 295 292 288 284 281 279 279 280 282
232 233 232 229 228 228 229 231 233 235 236 237 238 238 240 242 243 245 247 249 249 245 241 243 248 251 252 253 256 258 260 263 265 268 270 272 274 276 278 279 280 282 283 285 286 287 289 290 291 292 293 296 299 300 302 305 307 307 307 309 311 311 311 310 309 308 307 306 305 303 302 301 301 301 302 303 304 304 304 303 303 303 302 301 299 298 297 296 295 293 291 288 286 284 284 285 287
233 232 232 228 226 228 229 230 233 236 237 239 240 240 240 241 243 245 247 248 250 247 243 244 247 250 252 254 256 258 261 264 266 267 268 270 272 274 276 278 280 282 283 284 285 286 287 289 290 291 292 296 299 298 300 303 304 304 306 309 310 310 309 308 306 304 304 303 301 300 299 298 298 298 299 300 301 301 300 300 300 300 300 299 298 297 296 294 293 292 291 290 289 288 289 290 291
233 232 231 228 226 227 228 230 233 235 238 239 240 242 241 240 242 245 247 248 249 249 247 245 245 248 252 254 256 257 260 262 265 266 267 267 269 272 275 278 280 281 282 283 284 285 285 287 288 290 291 293 296 297 298 300 301 302 306 309 308 306 305 304 302 301 301 300 298 297 296 296 295 295 296 298 298 297 297 297 297 297 298 298 297 296 295 294 293 291 291 292 293 294 295 296 296
233 233 231 228 227 227 228 230 233 234 237 240 240 242 242 240 242 245 247 249 249 250 251 249 245 247 251 253 254 255 257 258 261 264 265 266 269 273 276 278 279 280 281 281 282 283 283 285 287 288 289 290 293 295 296 297 298 302 306 306 304 302 302 301 299 299 298 296 296 295 295 294 293 293 294 295 295 295 295 296 296 297 297 297 296 296 296 295 293 293 296 299 302 304 304 304 303
233 233 231 228 228 228 228 230 233 233 237 240 240 240 241 241 242 245 247 248 249 250 253 252 247 247 249 251 251 252 254 255 257 261 264 268 272 275 276 276 277 278 278 280 281 281 282 283 284 285 285 287 291 293 293 295 297 301 303 301 299 299 300 298 296 296 295 294 294 294 294 292 291 291 292 293 293 294 294 295 296 296 296 295 295 296 295 294 293 295 300 307 313 317 318 317 313
233 233 232 229 229 229 229 231 232 233 235 239 240 239 240 241 242 244 247 247 246 249 253 251 248 248 246 247 248 250 252 254 257 261 265 269 273 274 274 274 275 276 277 279 280 280 280 281 280 281 283 287 291 291 292 293 296 299 299 297 297 298 297 294 293 293 293 293 293 293 293 291 289 289 290 291 292 293 293 295 295 296 295 294 293 293 293 293 293 294 304 319 327 330 329 326 320
233 233 232 230 229 229 230 230 232 232 235 239 240 239 240 240 241 243 245 245 244 248 252 249 247 247 245 245 247 250 252 255 258 262 266 270 271 272 272 274 274 275 277 279 279 279 279 279 279 281 283 288 290 289 288 289 293 297 296 295 296 296 293 290 291 292 293 292 290 290 289 289 288 287 288 289 290 291 292 294 294 294 293 290 289 289 290 293 292 299 320 327 327 328 329 328 323
234 233 231 229 228 230 230 231 232 233 234 238 240 239 239 239 240 241 243 243 242 247 251 248 246 246 246 246 247 251 253 257 260 264 268 269 270 271 273 274 274 275 278 278 278 278 278 279 280 282 283 287 289 284 282 285 291 295 294 293 294 292 289 289 290 291 293 292 288 285 285 287 287 285 286 288 289 291 292 293 291 290 287 283 281 284 286 283 287 314 322 323 324 327 329 329 326
235 233 231 229 229 229 230 231 232 233 234 237 238 238 238 239 239 240 242 243 240 246 250 248 245 246 247 247 247 250 253 257 262 265 268 269 270 271 272 271 271 272 272 273 274 273 275 278 279 279 282 288 288 282 280 283 288 293 293 292 292 289 288 288 289 291 295 293 286 282 283 286 286 285 287 289 290 291 291 289 287 287 283 273 271 276 274 263 282 308 318 323 325 327 329 330 329
236 234 231 229 229 228 230 230 231 233 234 236 237 237 237 239 240 239 240 242 240 245 248 245 243 244 246 247 248 250 255 260 264 267 267 268 268 266 265 266 267 268 270 272 272 271 272 275 277 279 283 289 289 286 286 286 288 292 294 292 291 290 289 288 289 293 296 295 289 284 286 289 289 288 289 290 290 291 291 289 286 284 278 266 261 262 258 260 281 308 319 321 323 328 330 331 330
235 233 231 230 230 229 230 231 231 232 234 236 236 237 237 238 240 240 240 240 241 246 246 243 242 242 244 247 248 251 256 260 263 267 267 265 264 262 263 265 268 269 268 269 271 271 270 270 273 277 279 283 292 296 294 293 293 295 297 296 294 292 291 289 290 296 298 298 295 290 291 291 290 290 292 293 292 292 291 289 285 280 276 265 256 252 252 258 282 311 317 319 325 330 329 328 328
233 232 231 231 231 230 231 232 232 233 234 235 236 237 237 237 238 240 240 239 239 244 245 242 241 241 242 245 247 248 249 251 255 262 266 267 264 261 262 263 266 265 262 265 271 275 275 271 269 271 273 270 276 285 287 288 289 294 302 301 297 293 290 287 291 299 301 301 299 295 293 288 288 293 296 297 292 288 284 283 282 279 274 264 256 254 252 258 293 315 317 321 326 326 324 323 325
232 231 232 232 232 232 232 233 233 234 235 236 236 236 237 237 237 238 238 236 237 241 242 242 242 241 241 243 247 247 244 242 242 245 253 259 261 260 260 261 259 258 260 265 271 281 285 280 273 272 274 272 270 272 277 282 284 295 304 301 296 292 286 283 288 296 300 304 299 292 290 285 291 298 298 298 292 283 276 274 278 276 270 263 262 260 255 269 305 317 318 320 322 322 321 320 321
233 232 232 232 232 233 233 234 234 235 236 237 237 236 236 236 236 238 237 235 237 241 243 243 243 243 243 244 246 247 244 240 236 232 236 242 251 255 257 259 255 253 256 261 268 280 286 282 279 278 277 278 279 274 275 282 288 296 300 298 294 289 282 279 284 289 296 305 299 286 283 285 292 296 298 301 295 284 272 270 273 269 265 264 263 260 260 281 308 317 317 318 320 322 321 320 322
233 233 232 232 232 232 233 235 235 236 237 238 238 237 237 236 236 238 238 237 239 243 244 243 244 244 245 245 246 246 243 241 238 234 235 239 246 251 254 255 251 252 255 259 262 264 269 273 277 279 279 282 281 275 278 285 292 295 295 296 294 287 282 278 280 286 292 302 297 282 276 281 286 290 297 300 296 287 273 269 270 263 257 255 253 257 268 286 306 316 315 315 319 320 320 321 324
233 233 233 232 232 233 233 235 236 237 238 240 240 239 239 237 236 237 238 240 242 243 243 242 243 244 245 245 245 245 243 241 239 236 237 241 245 250 255 255 250 253 255 258 260 258 259 263 268 272 277 280 275 273 280 288 295 297 295 296 295 289 284 279 278 283 290 296 291 277 274 280 282 285 292 292 291 288 275 268 267 258 250 243 241 254 271 281 299 313 314 314 317 318 316 318 322
233 233 234 233 234 234 235 236 237 238 239 241 241 240 240 238 237 237 239 241 243 243 243 242 242 242 243 243 244 245 244 242 240 238 238 239 242 248 254 253 249 252 254 255 258 259 256 256 260 264 270 273 267 269 279 290 298 300 297 295 293 287 281 278 279 283 288 289 282 273 274 280 281 282 287 287 288 287 276 270 267 258 250 244 243 254 268 276 291 307 313 314 315 315 314 315 320
233 233 234 234 234 236 237 238 238 239 239 241 242 241 241 240 238 237 238 241 242 243 243 243 242 242 242 243 243 245 246 244 243 242 240 239 239 243 248 249 248 249 252 253 255 257 255 254 255 257 265 268 262 266 273 282 292 297 299 297 294 286 280 280 283 284 285 282 278 275 277 279 279 281 283 284 287 287 277 269 266 260 255 254 254 260 268 275 286 300 307 310 312 314 313 314 317
233 233 233 234 235 236 238 239 239 239 240 241 242 243 242 241 239 237 237 240 243 243 243 243 243 243 243 244 244 245 246 246 244 243 242 242 240 240 242 246 248 248 249 251 252 254 254 254 253 253 258 260 258 263 266 273 282 290 296 299 298 291 286 286 285 284 284 281 278 278 279 277 278 280 282 283 287 285 275 267 265 263 262 262 263 267 270 276 286 296 303 306 309 313 313 313 315
232 232 233 234 235 236 238 239 238 239 239 240 241 243 243 242 240 239 238 239 243 244 243 243 243 243 243 243 244 244 244 245 244 242 243 244 243 242 241 243 246 246 248 249 250 252 252 254 255 252 250 250 253 259 262 268 275 282 288 294 297 293 290 291 287 284 286 284 279 277 277 277 279 280 280 282 284 281 272 266 265 264 265 265 267 270 274 281 289 297 303 305 307 311 311 311 312
232 232 232 234 235 235 238 239 239 238 238 239 239 241 242 242 241 240 239 239 242 244 244 244 244 243 243 242 243 243 243 243 243 242 242 243 243 245 244 243 243 244 247 249 248 250 250 252 255 251 247 246 248 254 261 266 271 277 281 286 292 290 288 292 289 286 286 284 278 274 274 276 280 280 280 282 279 273 268 265 265 264 267 269 271 274 279 287 293 298 302 305 308 310 310 310 312
233 233 233 233 233 234 237 239 239 238 238 238 238 240 242 242 241 240 240 240 242 244 245 245 245 245 244 243 243 243 243 244 244 242 242 242 243 245 246 245 244 242 245 248 247 248 249 250 252 249 247 247 249 254 262 267 269 272 273 277 285 286 286 289 290 288 283 280 275 270 270 273 277 279 279 280 276 269 265 264 265 266 269 272 274 276 282 290 295 298 303 308 310 311 311 311 312
234 234 233 233 233 233 236 237 237 237 237 237 237 239 241 242 241 240 241 241 242 243 245 246 246 246 245 244 243 243 243 244 244 243 242 243 243 243 244 245 245 243 244 247 247 246 246 247 248 249 249 249 250 253 258 263 265 266 265 269 277 282 286 286 289 289 281 275 272 268 267 269 274 276 276 278 278 273 267 265 265 266 269 270 272 276 282 291 297 299 304 310 313 312 312 313 313
235 233 232 232 232 233 235 236 236 236 236 236 235 237 239 240 240 240 240 241 241 242 243 245 246 246 245 245 244 244 244 244 245 244 243 243 242 242 243 243 244 244 245 247 247 245 244 245 247 250 252 250 249 252 255 256 258 262 262 264 271 278 283 284 286 288 281 272 271 270 268 268 272 275 275 277 279 275 270 265 264 264 266 268 271 277 285 293 296 298 305 311 313 314 314 314 314
233 232 231 230 231 232 234 235 236 235 235 235 235 235 237 239 239 238 238 239 240 241 242 243 245 246 246 245 245 244 244 245 245 245 245 244 243 242 242 242 242 244 245 246 247 246 242 243 245 249 253 250 247 250 253 252 253 260 263 264 270 277 282 282 282 284 281 274 272 273 272 272 274 275 276 279 278 272 267 263 262 262 264 268 273 280 286 292 295 299 306 312 314 314 314 314 314
231 231 230 230 230 231 233 234 235 235 234 234 234 235 235 236 238 238 238 239 240 240 241 242 243 245 245 244 243 243 243 244 245 245 245 245 244 242 241 242 242 243 244 245 246 246 242 241 244 248 251 249 246 247 252 253 256 263 265 265 269 276 282 281 279 280 279 275 272 272 273 274 275 275 277 280 274 266 263 262 262 262 264 269 272 277 283 288 294 300 307 312 313 314 314 314 314
230 230 229 229 230 231 233 234 236 236 234 234 234 234 234 235 237 238 239 239 240 240 241 242 243 243 244 243 241 240 241 242 244 244 245 245 245 243 241 240 241 242 243 244 245 246 243 241 243 246 248 247 244 245 250 254 259 265 268 267 267 273 278 277 276 278 277 274 271 271 271 272 273 275 277 276 269 264 263 263 263 264 267 269 269 272 279 287 294 301 307 311 312 312 313 313 314
230 230 229 229 229 230 232 234 237 237 236 236 236 235 235 235 236 239 240 241 242 242 242 242 243 243 243 242 240 239 240 242 243 244 244 245 245 244 242 240 240 241 243 243 243 245 244 241 242 244 245 246 244 244 249 255 261 265 267 267 267 270 273 273 274 277 274 271 270 269 268 270 272 274 275 272 269 267 266 265 265 266 267 266 267 273 281 288 295 300 304 308 310 311 312 312 313
229 230 230 230 230 230 232 234 237 238 237 237 236 235 235 237 238 240 242 244 244 244 244 243 243 243 242 242 241 240 241 243 243 244 244 245 246 246 243 241 240 241 243 244 243 244 244 242 241 242 243 245 246 246 248 254 260 263 263 263 266 268 269 270 274 275 273 269 268 267 267 269 272 272 272 271 270 270 269 268 267 266 265 264 269 278 285 290 295 299 302 305 308 309 310 311 311
229 229 230 230 231 231 231 232 236 237 236 236 237 236 236 238 240 241 242 244 246 245 244 244 243 243 242 242 241 240 241 242 244 245 246 246 247 247 246 243 241 240 242 245 245 244 243 242 241 241 242 245 247 248 249 253 259 261 262 262 264 267 268 270 273 274 274 271 269 268 268 269 270 269 268 268 268 268 270 270 269 267 265 266 272 281 286 290 293 296 299 302 305 306 307 308 309
228 229 229 229 230 230 230 231 234 236 236 236 238 237 236 237 239 241 244 245 245 245 244 244 244 243 242 242 241 241 240 241 244 247 248 247 247 248 248 246 243 241 241 244 246 246 244 242 242 241 242 245 248 249 250 254 258 259 262 264 264 267 269 270 272 273 274 273 271 269 268 269 269 267 266 267 268 270 272 272 271 270 268 268 274 281 285 287 290 294 297 299 302 303 304 306 308
228 228 228 228 229 229 230 231 233 236 236 236 236 236 235 235 235 236 242 247 247 245 243 243 244 242 241 241 241 241 241 240 243 246 248 248 247 247 248 248 246 243 242 243 245 247 245 243 242 242 243 245 247 250 251 253 256 257 260 263 264 267 268 269 271 271 271 271 271 270 268 267 268 267 265 266 268 269 271 272 271 271 270 271 276 281 284 286 289 292 295 297 299 301 303 305 307
228 228 228 228 228 229 230 231 232 235 236 235 235 235 234 234 233 231 234 243 248 247 243 241 242 241 239 239 240 240 240 240 241 244 247 247 247 248 249 250 250 247 244 245 246 247 246 245 244 243 244 246 247 249 251 253 253 256 259 260 263 266 268 269 269 269 269 270 271 271 269 267 267 267 266 265 266 266 268 270 273 274 275 276 279 281 284 286 289 292 295 297 300 302 304 306 307
226 227 227 227 227 228 229 230 231 233 234 234 234 235 235 235 236 233 230 238 246 247 244 241 241 241 239 237 239 239 239 238 239 242 245 247 248 249 251 252 251 249 247 247 248 248 247 247 247 247 247 247 247 249 251 253 253 255 258 259 262 266 269 268 268 268 269 270 272 273 273 271 269 269 269 268 267 268 270 273 277 279 279 280 281 282 285 288 292 295 297 299 301 303 305 307 308
225 225 225 225 226 226 228 230 231 232 233 234 234 235 236 235 236 232 224 231 241 241 240 240 242 242 240 237 237 237 237 236 238 240 243 245 247 248 250 250 249 247 247 247 249 249 249 249 249 249 248 246 246 247 250 252 254 256 259 261 262 265 269 270 269 268 269 271 273 276 276 274 273 272 272 271 271 271 274 277 279 280 280 281 283 285 288 292 294 297 299 301 303 304 306 306 307
224 224 224 224 225 226 227 229 231 232 234 235 234 234 235 233 233 231 222 224 233 236 236 238 241 241 239 236 235 236 235 235 236 238 240 241 242 244 247 248 247 246 246 246 248 249 249 248 245 245 247 246 246 248 249 251 254 257 260 262 263 264 268 272 271 270 270 271 274 276 276 276 276 275 275 275 275 275 277 277 277 278 280 283 286 289 291 293 296 297 299 301 303 304 305 306 307
225 226 225 225 225 226 227 229 232 233 235 236 235 233 233 232 231 230 227 227 233 237 236 236 238 240 237 236 235 235 235 234 235 237 237 237 238 241 244 247 248 247 246 247 249 250 250 249 246 246 249 249 249 249 250 251 254 256 259 261 264 264 266 269 272 272 271 272 274 275 275 275 276 277 277 277 277 276 276 276 277 279 282 286 288 291 293 295 297 298 300 301 302 303 304 305 306
226 228 228 228 227 228 229 231 233 235 235 236 235 233 232 231 229 229 231 234 237 238 237 234 236 237 237 238 237 236 234 234 235 236 236 236 237 240 243 246 248 248 248 249 250 252 253 252 250 250 251 251 252 252 252 253 254 256 258 260 263 265 265 267 271 272 272 273 274 274 273 273 273 274 274 274 274 275 276 277 279 282 285 288 290 293 294 296 297 298 299 300 301 302 303 305 306
229 231 231 232 232 232 233 234 235 235 234 235 234 233 231 229 229 230 232 235 237 236 236 236 235 235 237 239 239 237 235 233 234 236 237 237 238 241 243 245 247 248 249 250 251 254 255 255 253 252 251 252 253 254 255 255 256 257 259 260 263 264 265 267 270 272 272 273 274 274 272 271 271 270 270 270 272 274 277 279 282 284 287 289 291 292 294 295 296 297 298 299 300 302 303 304 305
229 231 231 232 233 233 235 235 235 233 232 234 233 233 232 228 226 228 230 233 235 235 235 236 236 235 235 238 238 237 235 234 234 236 237 238 239 240 241 243 245 247 248 248 250 252 255 256 256 255 254 253 254 255 256 257 258 259 259 260 262 263 265 267 269 271 272 273 273 272 271 271 270 270 270 271 273 275 278 280 283 285 287 289 290 291 292 293 295 296 297 299 301 302 303 304 304
225 227 228 230 231 232 233 232 232 230 229 231 232 232 230 226 222 225 231 234 235 236 237 238 239 236 234 236 238 237 235 234 235 236 237 239 239 239 240 241 244 246 246 246 248 250 253 255 257 258 258 257 257 256 257 257 258 259 260 260 261 263 265 267 269 271 272 273 272 271 270 270 270 271 272 273 274 277 279 281 283 285 287 288 289 290 292 293 295 297 298 299 301 301 302 303 304
225 227 227 229 230 231 231 230 229 227 227 229 231 230 228 225 222 225 231 234 234 235 237 239 240 238 236 235 236 237 236 234 235 236 237 238 240 241 240 241 243 245 245 245 247 250 251 253 256 258 259 259 259 259 259 258 258 258 259 260 261 263 264 266 268 270 271 271 271 271 271 272 272 273 274 276 277 279 281 283 284 286 287 288 290 291 293 294 296 297 299 299 300 301 302 303 304
226 227 226 227 228 228 229 229 228 227 226 228 229 228 227 224 223 225 230 234 234 234 235 237 238 238 236 234 234 236 237 235 235 236 237 238 240 241 241 241 242 244 245 246 248 250 251 251 254 256 258 259 260 260 261 260 260 259 258 258 259 261 263 265 266 268 269 269 271 272 274 275 277 278 279 280 281 283 284 285 286 287 289 290 292 293 294 295 297 297 298 299 300 301 302 303 305
224 225 224 226 228 229 230 231 231 229 228 228 228 227 225 223 224 226 229 232 233 233 234 234 236 237 237 234 232 235 237 237 236 236 237 238 240 241 241 241 242 244 246 248 250 252 251 251 253 255 257 259 260 261 262 263 263 263 262 260 260 261 262 264 266 267 269 271 273 274 276 278 279 281 282 283 283 284 285 286 287 289 290 292 293 294 295 296 297 298 298 300 301 302 303 304 305
223 223 224 226 227 229 230 231 230 230 229 229 228 225 223 224 225 227 229 231 232 234 235 235 236 238 238 236 233 233 236 238 238 238 237 238 240 241 241 242 243 245 248 250 253 253 252 252 253 255 257 258 260 261 262 264 265 266 265 264 263 264 265 267 268 270 272 273 275 277 278 279 280 281 282 283 284 285 286 287 289 290 291 292 293 294 295 296 297 298 299 300 302 303 304 305 306
225 225 226 228 228 228 229 229 229 229 228 228 227 224 222 222 224 226 229 230 231 234 236 237 237 238 239 238 235 233 235 237 239 240 239 240 241 241 242 243 244 246 248 251 253 254 254 255 255 257 258 260 261 261 262 264 266 268 269 269 269 269 269 270 272 273 274 275 276 277 278 279 279 280 282 283 284 285 287 288 289 290 291 292 293 295 296 297 298 299 300 301 302 303 304 305 306
223 226 227 228 228 229 229 230 230 230 229 228 226 223 220 220 221 226 228 229 233 236 238 239 239 239 240 239 238 237 237 238 239 241 241 241 242 243 244 245 245 247 248 250 252 254 256 257 258 259 261 262 263 263 264 266 268 270 272 272 272 272 272 272 273 274 274 275 275 276 277 278 279 280 282 283 285 286 287 289 290 291 292 293 295 296 297 298 299 300 301 302 303 304 305 305 306